Time,TemperatureF,DewpointF,PressureIn,WindDirection,WindDirectionDegrees,WindSpeedMPH,WindSpeedGustMPH,Humidity,HourlyPrecipIn,Conditions,Clouds,dailyrainin,SolarRadiationWatts/m^2,SoftwareType,DateUTC
2013-05-13 00:12:00,72.9,71.0,30.05,NNE,23,0.0,-999.0,93,-99.99,,,0.00,0,weatherlink.com 1.10,2013-05-13 04:12:00,
2013-05-13 00:27:00,72.8,71.0,30.04,NNE,23,0.0,-999.0,93,-99.99,,,0.00,0,weatherlink.com 1.10,2013-05-13 04:27:00,
2013-05-13 00:42:00,72.8,71.0,30.04,NNE,23,0.0,-999.0,93,-99.99,,,0.00,0,weatherlink.com 1.10,2013-05-13 04:42:00,
2013-05-13 00:57:00,72.7,71.0,30.03,NNE,23,0.0,-999.0,93,-99.99,,,0.00,0,weatherlink.com 1.10,2013-05-13 04:57:00,
2013-05-13 01:12:00,72.6,71.0,30.03,NNE,23,0.0,-999.0,93,-99.99,,,0.00,0,weatherlink.com 1.10,2013-05-13 05:12:00,
2013-05-13 01:27:00,72.5,70.0,30.02,NNE,23,0.0,-999.0,93,-99.99,,,0.00,0,weatherlink.com 1.10,2013-05-13 05:27:00,
2013-05-13 01:42:00,72.4,70.0,30.02,NNE,23,0.0,-999.0,93,-99.99,,,0.00,0,weatherlink.com 1.10,2013-05-13 05:42:00,
2013-05-13 01:57:00,72.3,70.0,30.01,NNE,23,0.0,-999.0,93,-99.99,,,0.00,0,weatherlink.com 1.10,2013-05-13 05:57:00,
2013-05-13 02:12:00,72.2,70.0,30.01,NNE,23,0.0,-999.0,93,-99.99,,,0.00,0,weatherlink.com 1.10,2013-05-13 06:12:00,
2013-05-13 02:27:00,72.0,70.0,30.00,NNE,23,0.0,-999.0,93,-99.99,,,0.00,0,weatherlink.com 1.10,2013-05-13 06:27:00,
2013-05-13 02:42:00,72.1,70.0,30.00,NNE,23,0.0,-999.0,93,-99.99,,,0.00,0,weatherlink.com 1.10,2013-05-13 06:42:00,
2013-05-13 02:57:00,71.9,70.0,30.00,NNE,23,0.0,-999.0,93,-99.99,,,0.00,0,weatherlink.com 1.10,2013-05-13 06:57:00,
2013-05-13 03:12:00,71.8,70.0,30.00,NNE,23,0.0,-999.0,94,-99.99,,,0.00,0,weatherlink.com 1.10,2013-05-13 07:12:00,
2013-05-13 03:27:00,71.7,70.0,30.00,NNE,23,0.0,-999.0,94,-99.99,,,0.00,0,weatherlink.com 1.10,2013-05-13 07:27:00,
2013-05-13 03:42:00,71.6,70.0,30.00,NNE,23,0.0,-999.0,94,-99.99,,,0.00,0,weatherlink.com 1.10,2013-05-13 07:42:00,
2013-05-13 03:57:00,71.5,70.0,30.00,NNE,23,0.0,-999.0,94,-99.99,,,0.00,0,weatherlink.com 1.10,2013-05-13 07:57:00,
2013-05-13 04:12:00,71.4,70.0,30.00,NNE,23,0.0,-999.0,94,-99.99,,,0.00,0,weatherlink.com 1.10,2013-05-13 08:12:00,
2013-05-13 04:27:00,71.3,70.0,30.00,NNE,23,0.0,-999.0,94,-99.99,,,0.00,0,weatherlink.com 1.10,2013-05-13 08:27:00,
2013-05-13 04:42:00,71.1,69.0,30.00,NNE,23,0.0,-999.0,94,-99.99,,,0.00,0,weatherlink.com 1.10,2013-05-13 08:42:00,
2013-05-13 04:57:00,70.9,69.0,30.00,NNE,23,0.0,-999.0,94,-99.99,,,0.00,0,weatherlink.com 1.10,2013-05-13 08:57:00,
2013-05-13 05:12:00,70.7,69.0,30.00,NNE,23,0.0,-999.0,94,-99.99,,,0.00,0,weatherlink.com 1.10,2013-05-13 09:12:00,
2013-05-13 05:27:00,70.6,69.0,30.00,NNE,23,0.0,-999.0,94,-99.99,,,0.00,0,weatherlink.com 1.10,2013-05-13 09:27:00,
2013-05-13 05:42:00,70.5,69.0,30.00,NNE,23,0.0,-999.0,94,-99.99,,,0.00,0,weatherlink.com 1.10,2013-05-13 09:42:00,
2013-05-13 05:57:00,70.4,69.0,30.00,NNE,23,0.0,-999.0,94,-99.99,,,0.00,0,weatherlink.com 1.10,2013-05-13 09:57:00,
2013-05-13 06:12:00,70.3,69.0,30.00,NNE,23,0.0,-999.0,94,-99.99,,,0.00,0,weatherlink.com 1.10,2013-05-13 10:12:00,
2013-05-13 06:27:00,70.1,68.0,30.01,NNE,23,0.0,-999.0,94,-99.99,,,0.00,0,weatherlink.com 1.10,2013-05-13 10:27:00,
2013-05-13 06:42:00,69.9,68.0,30.01,NNE,23,0.0,-999.0,94,-99.99,,,0.00,11,weatherlink.com 1.10,2013-05-13 10:42:00,
2013-05-13 06:57:00,69.9,68.0,30.02,NNE,23,0.0,-999.0,94,-99.99,,,0.00,33,weatherlink.com 1.10,2013-05-13 10:57:00,
2013-05-13 07:12:00,70.3,69.0,30.02,NNE,23,0.0,-999.0,95,-99.99,,,0.00,51,weatherlink.com 1.10,2013-05-13 11:12:00,
2013-05-13 07:28:00,71.0,70.0,30.02,NNE,23,0.0,-999.0,95,-99.99,,,0.00,47,weatherlink.com 1.10,2013-05-13 11:28:00,
2013-05-13 07:43:00,71.9,71.0,30.03,NNE,23,0.0,-999.0,95,-99.99,,,0.00,93,weatherlink.com 1.10,2013-05-13 11:43:00,
2013-05-13 07:58:00,72.8,71.0,30.03,NNE,23,1.0,-999.0,95,-99.99,,,0.00,179,weatherlink.com 1.10,2013-05-13 11:58:00,
2013-05-13 08:13:00,73.7,72.0,30.03,NNE,22,0.0,-999.0,95,-99.99,,,0.00,239,weatherlink.com 1.10,2013-05-13 12:13:00,
2013-05-13 08:28:00,74.2,73.0,30.04,NNE,22,0.0,-999.0,95,-99.99,,,0.00,290,weatherlink.com 1.10,2013-05-13 12:28:00,
2013-05-13 08:43:00,74.9,73.0,30.04,NNE,19,0.0,-999.0,95,-99.99,,,0.00,338,weatherlink.com 1.10,2013-05-13 12:43:00,
2013-05-13 08:58:00,75.4,74.0,30.05,NNE,19,0.0,-999.0,95,-99.99,,,0.00,394,weatherlink.com 1.10,2013-05-13 12:58:00,
2013-05-13 09:13:00,75.7,74.0,30.06,WNW,287,0.0,-999.0,95,-99.99,,,0.00,439,weatherlink.com 1.10,2013-05-13 13:13:00,
2013-05-13 09:28:00,76.9,75.0,30.06,WNW,288,1.0,-999.0,94,-99.99,,,0.00,485,weatherlink.com 1.10,2013-05-13 13:28:00,
2013-05-13 09:43:00,78.9,76.0,30.06,WNW,288,0.0,-999.0,90,-99.99,,,0.01,554,weatherlink.com 1.10,2013-05-13 13:43:00,
2013-05-13 09:58:00,80.2,75.0,30.06,WNW,288,0.0,-999.0,84,-99.99,,,0.01,621,weatherlink.com 1.10,2013-05-13 13:58:00,
2013-05-13 10:13:00,81.0,74.0,30.07,West,275,0.0,-999.0,80,-99.99,,,0.01,673,weatherlink.com 1.10,2013-05-13 14:13:00,
2013-05-13 10:28:00,81.3,74.0,30.07,WSW,242,0.0,-999.0,79,-99.99,,,0.01,190,weatherlink.com 1.10,2013-05-13 14:28:00,
2013-05-13 10:43:00,81.9,73.0,30.07,WSW,255,0.0,-999.0,74,-99.99,,,0.01,744,weatherlink.com 1.10,2013-05-13 14:43:00,
2013-05-13 10:58:00,83.5,74.0,30.07,West,259,2.0,-999.0,72,-99.99,,,0.01,700,weatherlink.com 1.10,2013-05-13 14:58:00,
2013-05-13 11:13:00,83.8,73.0,30.07,WSW,251,0.0,-999.0,71,-99.99,,,0.01,846,weatherlink.com 1.10,2013-05-13 15:13:00,
2013-05-13 11:28:00,83.8,73.0,30.07,West,267,2.0,-999.0,69,-99.99,,,0.01,847,weatherlink.com 1.10,2013-05-13 15:28:00,
2013-05-13 11:44:00,85.0,73.0,30.07,West,267,0.0,-999.0,68,-99.99,,,0.01,784,weatherlink.com 1.10,2013-05-13 15:44:00,
2013-05-13 11:59:00,84.8,74.0,30.07,West,263,2.0,-999.0,70,-99.99,,,0.01,881,weatherlink.com 1.10,2013-05-13 15:59:00,
2013-05-13 12:14:00,87.1,73.0,30.07,NW,304,0.0,-999.0,64,-99.99,,,0.01,937,weatherlink.com 1.10,2013-05-13 16:14:00,
2013-05-13 12:29:00,87.0,73.0,30.07,WNW,296,0.0,-999.0,63,-99.99,,,0.01,652,weatherlink.com 1.10,2013-05-13 16:29:00,
2013-05-13 12:44:00,87.2,73.0,30.07,SW,229,0.0,-999.0,62,-99.99,,,0.01,283,weatherlink.com 1.10,2013-05-13 16:44:00,
2013-05-13 12:59:00,86.5,76.0,30.07,East,82,0.0,-999.0,71,-99.99,,,0.01,814,weatherlink.com 1.10,2013-05-13 16:59:00,
2013-05-13 13:14:00,88.3,74.0,30.06,ENE,76,1.0,-999.0,62,-99.99,,,0.01,970,weatherlink.com 1.10,2013-05-13 17:14:00,
2013-05-13 13:29:00,89.0,71.0,30.06,WNW,288,0.0,-999.0,56,-99.99,,,0.01,330,weatherlink.com 1.10,2013-05-13 17:29:00,
2013-05-13 13:44:00,89.2,71.0,30.05,West,263,1.0,-999.0,55,-99.99,,,0.01,1062,weatherlink.com 1.10,2013-05-13 17:44:00,
2013-05-13 13:59:00,88.7,74.0,30.05,ENE,69,0.0,-999.0,63,-99.99,,,0.01,258,weatherlink.com 1.10,2013-05-13 17:59:00,
2013-05-13 14:14:00,87.6,74.0,30.05,ENE,71,0.0,-999.0,64,-99.99,,,0.01,244,weatherlink.com 1.10,2013-05-13 18:14:00,
2013-05-13 14:29:00,89.2,73.0,30.05,West,279,0.0,-999.0,60,-99.99,,,0.01,1076,weatherlink.com 1.10,2013-05-13 18:29:00,
2013-05-13 14:44:00,88.1,75.0,30.04,East,82,2.0,-999.0,66,-99.99,,,0.01,366,weatherlink.com 1.10,2013-05-13 18:44:00,
2013-05-13 14:59:00,87.3,75.0,30.04,ENE,73,0.0,-999.0,66,-99.99,,,0.01,301,weatherlink.com 1.10,2013-05-13 18:59:00,
2013-05-13 15:14:00,89.9,71.0,30.03,WSW,247,4.0,-999.0,54,-99.99,,,0.01,956,weatherlink.com 1.10,2013-05-13 19:14:00,
2013-05-13 15:29:00,90.7,67.0,30.03,West,274,1.0,-999.0,46,-99.99,,,0.01,814,weatherlink.com 1.10,2013-05-13 19:29:00,
2013-05-13 15:44:00,87.5,74.0,30.03,East,86,3.0,-999.0,64,-99.99,,,0.01,190,weatherlink.com 1.10,2013-05-13 19:44:00,
2013-05-13 15:59:00,86.5,75.0,30.02,ENE,67,2.0,-999.0,69,-99.99,,,0.01,819,weatherlink.com 1.10,2013-05-13 19:59:00,
2013-05-13 16:14:00,85.4,74.0,30.02,East,98,5.0,-999.0,69,-99.99,,,0.01,216,weatherlink.com 1.10,2013-05-13 20:14:00,
2013-05-13 16:29:00,83.6,74.0,30.03,ENE,68,3.0,-999.0,72,-99.99,,,0.01,243,weatherlink.com 1.10,2013-05-13 20:29:00,
2013-05-13 16:44:00,84.2,74.0,30.03,East,101,1.0,-999.0,72,-99.99,,,0.01,684,weatherlink.com 1.10,2013-05-13 20:44:00,
2013-05-13 16:59:00,83.7,74.0,30.03,East,88,3.0,-999.0,73,-99.99,,,0.01,160,weatherlink.com 1.10,2013-05-13 20:59:00,
2013-05-13 17:14:00,82.6,74.0,30.03,ENE,57,7.0,-999.0,74,-99.99,,,0.01,156,weatherlink.com 1.10,2013-05-13 21:14:00,
2013-05-13 17:29:00,83.2,74.0,30.02,ENE,59,7.0,-999.0,74,-99.99,,,0.01,448,weatherlink.com 1.10,2013-05-13 21:29:00,
2013-05-13 17:44:00,83.4,74.0,30.02,East,87,7.0,-999.0,73,-99.99,,,0.01,107,weatherlink.com 1.10,2013-05-13 21:44:00,
2013-05-13 17:59:00,82.8,74.0,30.02,East,88,2.0,-999.0,74,-99.99,,,0.01,128,weatherlink.com 1.10,2013-05-13 21:59:00,
2013-05-13 18:14:00,82.6,73.0,30.01,ENE,61,0.0,-999.0,72,-99.99,,,0.01,76,weatherlink.com 1.10,2013-05-13 22:14:00,
2013-05-13 18:29:00,82.3,73.0,30.01,ESE,102,2.0,-999.0,73,-99.99,,,0.01,67,weatherlink.com 1.10,2013-05-13 22:29:00,
2013-05-13 18:44:00,81.9,73.0,30.01,ENE,57,0.0,-999.0,75,-99.99,,,0.01,93,weatherlink.com 1.10,2013-05-13 22:44:00,
2013-05-13 18:59:00,80.9,73.0,30.01,NE,35,7.0,-999.0,77,-99.99,,,0.01,70,weatherlink.com 1.10,2013-05-13 22:59:00,
2013-05-13 19:14:00,80.2,73.0,30.02,ENE,63,6.0,-999.0,78,-99.99,,,0.01,39,weatherlink.com 1.10,2013-05-13 23:14:00,
2013-05-13 19:29:00,79.7,72.0,30.02,ENE,64,8.0,-999.0,78,-99.99,,,0.01,21,weatherlink.com 1.10,2013-05-13 23:29:00,
2013-05-13 19:44:00,79.1,72.0,30.03,ENE,68,6.0,-999.0,78,-99.99,,,0.01,11,weatherlink.com 1.10,2013-05-13 23:44:00,
2013-05-13 19:59:00,78.7,72.0,30.03,North,360,5.0,-999.0,79,-99.99,,,0.01,0,weatherlink.com 1.10,2013-05-13 23:59:00,
2013-05-13 20:14:00,78.3,71.0,30.04,ENE,57,1.0,-999.0,79,-99.99,,,0.01,0,weatherlink.com 1.10,2013-05-14 00:14:00,
2013-05-13 20:29:00,78.2,71.0,30.04,ENE,61,7.0,-999.0,79,-99.99,,,0.01,0,weatherlink.com 1.10,2013-05-14 00:29:00,
2013-05-13 20:44:00,78.0,71.0,30.05,NNE,32,4.0,-999.0,78,-99.99,,,0.01,0,weatherlink.com 1.10,2013-05-14 00:44:00,
2013-05-13 20:59:00,77.9,71.0,30.05,ENE,59,3.0,-999.0,78,-99.99,,,0.01,0,weatherlink.com 1.10,2013-05-14 00:59:00,
2013-05-13 21:14:00,77.9,70.0,30.05,NE,48,2.0,-999.0,77,-99.99,,,0.01,0,weatherlink.com 1.10,2013-05-14 01:14:00,
2013-05-13 21:29:00,78.0,71.0,30.05,ENE,67,3.0,-999.0,79,-99.99,,,0.01,0,weatherlink.com 1.10,2013-05-14 01:29:00,
2013-05-13 21:44:00,77.8,71.0,30.06,ENE,62,4.0,-999.0,79,-99.99,,,0.01,0,weatherlink.com 1.10,2013-05-14 01:44:00,
2013-05-13 21:59:00,77.8,70.0,30.06,NE,54,0.0,-999.0,78,-99.99,,,0.01,0,weatherlink.com 1.10,2013-05-14 01:59:00,
2013-05-13 22:14:00,77.8,70.0,30.06,NE,55,0.0,-999.0,78,-99.99,,,0.01,0,weatherlink.com 1.10,2013-05-14 02:14:00,
2013-05-13 22:29:00,77.7,70.0,30.07,ENE,61,4.0,-999.0,77,-99.99,,,0.01,0,weatherlink.com 1.10,2013-05-14 02:29:00,
2013-05-13 22:44:00,77.7,70.0,30.08,NE,45,0.0,-999.0,77,-99.99,,,0.01,0,weatherlink.com 1.10,2013-05-14 02:44:00,
2013-05-13 22:59:00,77.6,70.0,30.08,ENE,65,0.0,-999.0,78,-99.99,,,0.01,0,weatherlink.com 1.10,2013-05-14 02:59:00,
2013-05-13 23:14:00,77.6,70.0,30.08,NNE,32,3.0,-999.0,77,-99.99,,,0.01,0,weatherlink.com 1.10,2013-05-14 03:14:00,
2013-05-13 23:29:00,77.6,70.0,30.07,ENE,63,0.0,-999.0,77,-99.99,,,0.01,0,weatherlink.com 1.10,2013-05-14 03:29:00,
2013-05-13 23:44:00,77.7,70.0,30.07,ENE,63,1.0,-999.0,77,-99.99,,,0.01,0,weatherlink.com 1.10,2013-05-14 03:44:00,
2013-05-13 23:59:00,77.8,70.0,30.07,ENE,71,1.0,-999.0,78,-99.99,,,0.00,0,weatherlink.com 1.10,2013-05-14 03:59:00,